Regional Weather Roundup
Issued by NWS

Home | Current Version | Previous Version | Text Only | Print | Product List | Glossary Off
Versions: 1 2 3 4 5 6 7 8 9 10 11 12 13 14 15 16 17 18 19 20 21 22 23 24 25 26 27 28 29 30 31 32 33 34 35 36 37 38 39 40 41 42 43 44 45 46 47 48 49 50

000
ASUS45 KSLC 231110
RWRUT

UTAH REGIONAL WEATHER ROUNDUP
NATIONAL WEATHER SERVICE SALT LAKE CITY UT
500 AM MDT WED JUL 23 2014

UTZ001>011-023>025-231200-

NORTHERN UTAH

CITY           SKY/WX    TMP DP  RH WIND       PRES   REMARKS
HILL AFB       CLEAR     72  34  24 E17       30.15R
LOGAN          NOT AVBL
OGDEN          CLEAR     71  34  25 S12       30.11S
PROVO AIRPORT  CLEAR     66  39  37 E6        30.17S
SALT LAKE CITY PTCLDY    74  41  30 SE10      30.10R
VERNAL         CLEAR     62  31  31 W6        30.22S
WENDOVER       CLEAR     72  25  17 NE9       30.09R
HEBER CITY     CLEAR     48  39  71 CALM      30.28R
WEST JORDAN    CLEAR     79  45  29 S12       30.14S

$$

UTZ012>022-026-027-231200-

SOUTHERN UTAH

CITY           SKY/WX    TMP DP  RH WIND       PRES   REMARKS
BRYCE CANYON   PTCLDY    53  34  48 W10       30.44F
CEDAR CITY     CLEAR     60  37  42 NW5       30.25S
MILFORD        CLEAR     63  36  36 S7        30.19S
MOAB/CYNLANDS  CLEAR     82  44  26 SE9       30.16R
PRICE          CLEAR     67  16  14 N8        30.26S
ST GEORGE      SUNNY     79  28  15 E5        30.06S
KANAB            N/A     64  36  34 NE6       30.25S

$$

REGIONAL REPORTS     COLORADO/ARIZONA

CITY           SKY/WX    TMP DP  RH WIND       PRES   REMARKS
CRAIG, CO      CLEAR     45  37  73 NE3       30.35R
GRAND JUNCTION CLEAR     75  30  19 E15       30.22R
RIFLE          CLEAR     63  33  32 SW5       30.31R
MONTROSE       CLEAR     67  42  40 S6        30.35R
CORTEZ         CLEAR     76  43  30 E7        30.35S
PAGE, AZ       PTCLDY    84  37  18 CALM      30.15S
GRAND CANYON   PTCLDY    57  41  55 CALM      30.37S HAZE
KINGMAN        CLEAR     71  36  27 SE6       30.08F
FLAGSTAFF      PTCLDY    56  40  55 CALM      30.40F

$$

REGIONAL REPORTS    NEVADA/IDAHO/WYOMING

CITY           SKY/WX    TMP DP  RH WIND       PRES   REMARKS
LAS VEGAS, NV  CLEAR     87  29  12 S9        29.92S
ELY            CLEAR     52  20  28 S10       30.29S
ELKO           CLEAR     63  38  39 SE3       30.17R
POCATELLO, ID  CLEAR     58  53  84 SW6       30.10R
BURLEY         CLEAR     71  45  39 W23G32    30.07S
EVANSTON, WY   CLEAR     62  27  26 SE7       30.36R
ROCK SPRINGS   PTCLDY    67  22  18 SE5       30.34S

$$


USA.gov is the U.S. government's official web portal to all federal, state and local government web resources and services.